EHI
3 2 1 0 0 0 0 0 0 0 0 0 0 0 0 0 0 0 0 0 0 0 0 0 0 0 0 0 0 0 0 0 0 0 0 0 0 0
3 3 1 0 0 0 0 0 0 0 0 0 0 0 0 0 0 0 0 0 0 0 0 0 0 0 0 0 0 0 0 0 0 0 0 0 0 0
3 2 2 1 1 1 0 0 0 0 0 0 0 0 0 0 0 0 0 0 0 0 0 0 0 0 0 0 0 0 0 0 0 0 0 0 0 0
2 1 1 2 2 1 0 0 0 0 0 0 0 0 0 0 0 0 0 0 0 0 0 0 0 0 0 0 0 0 0 0 0 0 0 0 0 0
1 0 1 2 2 1 0 0 0 0 0 0 0 0 0 0 0 0 0 0 0 0 0 0 0 0 0 0 0 0 0 0 0 0 0 0 0 0
0 0 1 1 1 0 0 0 0 0 0 0 0 0 0 0 0 0 0 0 0 0 0 0 0 0 0 0 0 0 0 0 0 0 0 0 0 0
0 0 0 0 0 0 0 0 0 0 0 0 0 0 0 0 0 0 0 0 0 0 0 0 0 0 0 0 0 0 0 0 0 0 0 0 0 0
0 0 0 0 0 0 0 0 0 0 0 0 0 0 0 0 0 0 0 0 0 0 0 0 0 0 0 0 0 0 0 0 0 0 0 0 0 0
0 0 0 0 0 0 0 0 0 0 0 0 0 0 0 0 0 0 0 0 0 0 0 0 0 0 0 0 0 0 0 0 0 0 0 0 0 0
0 0 0 0 0 0 0 0 0 0 0 0 0 0 0 0 0 0 0 0 0 0 0 0 0 0 0 0 0 0 0 0 0 0 0 0 0 0
0 0 0 0 0 0 0 0 0 0 0 0 0 0 0 0 0 0 0 0 0 0 0 0 0 0 0 0 0 0 0 0 0 0 0 0 0 0
0 0 0 0 0 0 0 0 0 0 0 0 0 0 0 0 0 0 0 0 0 0 0 0 0 0 0 0 0 0 0 0 0 0 0 0 0 0
0 0 0 0 0 0 0 0 0 0 0 0 0 0 0 0 0 0 0 0 0 0 0 0 0 0 0 0 0 0 0 0 0 0 0 0 0 0
0 0 0 0 0 0 0 0 0 0 0 0 0 0 0 0 0 0 0 0 0 0 0 0 0 0 0 0 0 0 0 0 0 0 0 0 0 0
0 0 0 0 0 0 0 0 0 0 0 0 0 0 0 0 0 0 0 0 0 0 0 0 0 0 0 0 0 0 0 0 0 0 0 0 0 0
0 0 0 0 0 0 0 0 0 0 0 0 0 0 0 0 0 0 0 0 0 0 0 0 0 0 0 0 0 0 0 0 0 0 0 0 0 0
0 0 0 0 0 0 0 0 0 0 0 0 0 0 0 0 0 0 0 0 0 0 0 0 0 0 0 0 0 0 0 0 0 0 0 0 0 0
0 0 0 0 0 0 0 0 0 0 0 0 0 0 0 0 0 0 0 0 0 0 0 0 0 0 0 0 0 0 0 0 0 0 0 0 0 0
0 0 0 0 0 0 0 0 0 0 0 0 0 0 0 0 0 0 0 0 0 0 0 0 0 0 0 0 0 0 0 0 0 0 0 0 0 0
0 0 0 0 0 0 0 0 0 0 0 0 0 0 0 0 0 0 0 0 0 0 0 0 0 0 0 0 0 0 0 0 0 0 0 0 0 0
0 0 0 0 0 0 0 0 0 0 0 0 0 0 0 0 0 0 0 0 0 0 0 0 0 0 0 0 0 0 0 0 0 0 0 0 0 0
0 0 0 0 0 0 0 0 0 0 0 0 0 0 0 0 0 0 0 0 0 0 0 0 0 0 0 0 0 0 0 0 0 0 0 0 0 0
0 0 0 0 0 0 0 0 0 0 0 0 0 0 0 0 0 0 0 0 0 0 0 0 0 0 0 0 0 0 0 0 0 0 0 0 0 0
Wind_Speed
4 4 3 3 3 3 3 3 3 4 4 3 2 2 1 1 2 3 3 6 8 9 9 10 10 10 10 9 9 8 8 8 8 9 10 10 11 11
3 4 4 3 3 2 3 3 3 4 4 3 3 2 2 3 3 3 3 5 7 8 9 9 9 9 9 9 9 9 9 9 9 9 10 11 11 11
4 4 4 4 3 3 3 3 3 3 5 4 3 3 3 3 3 2 3 3 4 7 8 9 9 9 10 10 10 10 10 10 10 11 11 11 11 12
4 4 4 4 4 3 3 4 3 4 4 5 4 3 4 4 4 4 4 4 3 7 9 9 9 9 10 10 10 10 10 11 11 11 11 12 12 12
5 4 4 4 4 3 4 4 4 4 3 4 4 3 3 4 3 3 4 3 4 5 8 8 9 10 10 10 10 10 11 11 11 11 12 12 12 11
5 4 4 4 4 4 4 4 4 4 4 3 4 4 3 3 2 3 3 3 3 3 4 5 7 10 10 10 10 10 11 12 12 12 11 11 11 11
5 5 5 5 5 5 4 3 4 3 3 3 3 3 3 2 2 3 3 2 2 3 2 3 4 4 6 8 10 11 11 11 11 12 12 11 10 10
5 5 5 4 5 6 7 7 7 5 4 4 4 4 4 3 3 3 2 2 2 2 2 3 3 4 4 5 9 12 12 12 11 11 11 12 11 11
5 4 5 4 4 4 6 8 8 9 8 5 5 5 4 4 3 4 3 3 4 3 2 4 3 4 4 6 11 13 13 12 12 11 11 11 11 11
5 4 4 3 4 4 5 5 4 4 5 5 5 6 5 4 3 4 5 4 4 4 3 4 3 3 4 3 8 12 13 13 12 12 11 11 11 10
5 4 2 2 3 4 4 4 5 4 5 6 6 7 7 8 5 3 4 3 4 3 3 3 3 3 3 3 5 11 12 12 12 12 12 11 11 9
4 2 2 2 3 3 3 4 5 5 5 5 5 5 5 6 8 6 4 4 3 3 3 2 2 2 2 3 3 4 6 9 11 11 11 11 11 6
4 3 2 2 4 5 5 4 6 6 6 6 5 4 4 3 3 4 4 4 4 4 3 2 2 2 2 2 2 3 5 4 5 6 9 11 12 10
4 4 3 6 7 8 6 7 9 7 4 4 4 4 4 3 3 3 4 4 5 5 5 3 2 2 2 2 2 2 4 4 5 5 5 8 10 12
4 6 8 10 9 7 7 8 6 4 3 4 4 4 4 3 3 3 3 4 5 6 5 5 4 3 3 3 3 2 2 3 4 5 5 5 6 6
4 6 8 8 6 6 6 5 4 3 3 4 4 4 3 3 2 2 2 2 3 4 5 5 5 5 4 4 3 3 3 3 4 4 4 4 5 6
6 4 4 4 4 3 3 3 2 2 3 3 3 3 3 3 3 2 2 2 3 3 3 3 3 4 5 4 4 4 3 3 3 3 3 4 4 6
4 4 4 4 5 5 4 4 4 3 3 3 3 4 3 3 3 4 3 3 3 3 3 2 2 2 2 4 5 5 4 3 3 3 3 3 4 4
2 4 4 4 4 5 4 4 4 4 3 3 3 3 3 3 3 3 3 3 3 3 3 3 2 2 3 4 4 5 3 2 2 2 3 3 3 3
3 4 4 4 4 4 4 4 4 5 4 4 4 4 4 4 4 4 3 4 4 4 4 3 3 3 3 3 3 3 5 3 2 3 3 2 2 2
4 4 4 4 4 4 5 5 5 5 5 5 5 5 5 5 5 5 4 5 5 4 4 4 4 4 3 2 2 3 3 5 4 3 2 2 2 2
5 5 4 5 5 5 5 5 5 5 6 5 6 6 6 5 5 6 5 5 4 5 5 4 3 2 2 3 4 4 3 2 3 4 3 4 3 3
5 5 5 5 5 5 6 7 7 6 6 7 6 6 7 6 5 5 5 5 5 5 5 4 3 3 3 3 3 3 3 3 2 2 2 4 6 6
Wind_Direction
270 276 278 282 266 269 268 262 272 289 290 288 293 295 279 252 214 225 217 205 204 207 212 215 217 218 218 216 216 217 217 218 220 220 217 216 220 223
265 269 274 268 276 274 269 269 264 269 280 278 279 284 295 288 254 251 237 210 210 207 207 208 210 212 214 214 216 215 215 219 220 222 222 219 220 223
283 284 283 280 271 267 271 272 268 268 273 277 272 276 274 266 265 256 246 213 208 211 208 206 209 210 213 215 215 216 216 219 219 220 221 220 219 222
283 284 286 285 279 271 270 276 274 269 270 277 279 275 266 254 245 240 252 239 217 209 207 207 208 209 210 214 214 215 214 216 218 219 221 222 221 224
285 285 287 282 274 273 273 278 278 280 274 273 278 273 270 267 256 252 255 244 242 217 207 208 210 211 212 212 213 214 215 216 217 218 221 221 220 221
292 292 286 281 278 277 275 276 285 290 281 274 273 275 272 267 258 251 258 247 246 239 215 209 212 212 215 213 215 216 217 218 218 217 219 219 218 216
291 289 291 286 278 268 277 285 292 290 292 286 282 285 282 275 265 256 261 261 255 242 224 218 207 209 212 220 220 217 216 217 216 215 216 215 217 219
289 292 293 283 281 265 261 261 260 268 280 284 281 284 286 286 287 278 277 277 271 245 231 241 216 211 214 210 210 209 210 212 214 215 215 213 214 216
287 287 295 305 314 298 277 263 256 252 244 257 273 279 281 283 288 285 275 265 266 258 246 254 230 228 221 219 205 204 204 208 212 214 214 213 212 213
283 276 280 292 306 304 295 295 280 266 252 246 251 258 263 264 268 272 272 269 265 253 230 248 236 224 227 213 203 201 204 206 208 209 210 213 213 213
284 286 291 300 317 315 306 302 301 294 286 271 259 261 260 261 256 269 268 261 265 257 226 234 243 227 217 215 211 204 203 203 204 208 209 210 212 210
291 282 292 294 299 306 301 301 300 301 307 301 287 275 264 259 245 234 250 257 261 261 237 232 251 237 243 221 202 194 206 209 209 210 210 209 202 197
314 319 330 329 305 291 286 275 273 288 294 287 277 268 260 256 249 232 230 240 254 261 255 232 260 257 240 257 227 199 193 194 198 213 215 213 203 195
309 320 332 323 302 288 279 271 279 289 281 282 284 281 272 262 258 254 245 242 242 250 259 250 245 254 255 250 255 216 201 199 191 197 203 204 207 212
301 307 306 300 297 289 270 268 273 270 272 279 282 284 279 268 255 255 257 252 255 257 251 235 230 241 244 244 246 238 222 211 201 198 197 193 193 196
320 308 301 293 285 279 284 274 255 259 270 276 283 283 281 278 269 265 263 264 265 267 256 237 232 234 240 244 242 248 236 221 205 203 201 202 200 198
331 310 307 314 313 311 306 301 298 302 292 290 297 305 309 309 300 287 270 268 270 279 282 273 246 234 228 230 240 246 244 238 216 202 199 211 212 204
329 315 323 328 336 343 343 346 349 353 342 337 332 323 317 319 315 305 297 286 280 281 282 274 266 272 266 251 228 236 240 240 235 215 201 214 225 214
324 327 334 338 345 349 351 352 347 341 335 331 330 324 317 310 302 301 302 301 295 291 289 284 263 248 261 267 256 217 226 243 241 233 225 220 225 225
347 345 346 350 352 346 344 346 344 346 347 340 338 338 333 324 316 309 306 303 299 290 285 283 272 251 248 261 268 264 227 230 228 234 236 236 232 212
357 359 360 358 353 347 346 351 351 349 349 345 342 336 331 327 324 319 315 314 304 296 294 286 275 264 262 269 267 263 243 218 210 214 223 229 233 224
5 2 1 358 354 352 355 356 353 351 349 347 341 333 325 322 321 320 320 317 310 303 297 294 287 271 244 240 257 266 259 236 210 216 228 217 204 208
8 2 4 3 1 359 1 358 356 355 351 343 336 330 327 325 318 313 313 315 314 313 311 311 310 300 285 260 253 254 254 235 215 212 253 252 226 219